{"data":{"norad_id":55151,"epoch":"2026-09-20T05:04:53.230080Z","epoch_age_seconds":46744,"freshness":"FRESH","line1":"1 55151U 23004M   26263.21172720  .00000083  00000+0  18161-3 0  9997","line2":"2 55151  87.9200 346.9961 0001739 103.1713 256.9612 13.17650636179993","mean_motion":13.17650636,"eccentricity":0.0001739,"inclination_deg":87.92,"raan_deg":346.9961,"arg_perigee_deg":103.1713,"mean_anomaly_deg":256.9612,"bstar":0.00018161,"rev_number":17999,"period_min":109.28541759532,"perigee_km":1192.3902487002,"apogee_km":1195.0237360408,"semimajor_km":7571.8439923705,"source":"CELESTRAK","updated_at":"2026-09-20T09:00:44.752291Z"}}